Terminal Aerodrome Forecast
Issued by NWS Denver/Boulder, CO

Home | Current Version | Previous Version | Text Only | Print | Product List | Glossary On
Versions: 1 2 3 4 5 6 7 8 9 10 11 12 13 14 15 16 17 18 19 20 21 22 23 24 25 26 27 28 29 30 31 32 33 34 35 36 37 38 39 40 41 42 43 44 45 46 47 48 49 50
000
FTUS45 KBOU 271726
TAFDEN
TAF
KDEN 271726Z 2718/2824 VRB06KT P6SM FEW100 SCT200
     FM271900 29011G18KT P6SM FEW100 SCT200
     FM272100 36011KT P6SM FEW100 SCT200
     FM280000 05009KT P6SM FEW100 FEW200
     FM280200 15007KT P6SM FEW100
     FM280400 21011KT P6SM SKC
     FM281900 27012KT P6SM FEW100=

USA.gov is the U.S. government's official web portal to all federal, state and local government web resources and services.